Location: Renens
(46.5399°N, 6.5881°E)
Time: 09:40:54
(UTC+00:00)

Daily predictions for brighter satellites

Satellite Brightness Start Highest point End
(mag) Time Altitude Azimuth Time Altitude Azimuth Time Altitude Azimuth
CZ-4C R/B 4.0 18:17:08 10° W 18:21:52 30° NNW 18:27:25 10° NNE
USA 81 4.3 18:17:35 10° N 18:22:44 49° E 18:27:49 10° SSE
STARLINK-1237 4.2 18:20:19 10° SSW 18:24:02 37° SE 18:27:45 10° ENE
STARLINK-1083 3.9 18:20:06 10° WNW 18:24:05 56° NNE 18:28:04 10° ESE
STARLINK-1245 3.1 18:22:00 10° SW 18:25:02 53° SE 18:28:06 10° ENE
STARLINK-1238 3.1 18:22:25 10° SW 18:25:28 54° SE 18:28:33 10° ENE
STARLINK-1205 3.0 18:23:21 10° SW 18:26:24 54° SE 18:29:28 10° ENE
Cosmos 1331 Rocket 4.2 18:21:41 10° NNW 18:26:45 52° ENE 18:31:46 10° SE
STARLINK-1204 3.0 18:23:47 10° SW 18:26:50 55° SE 18:29:53 10° ENE
Cosmos 2219 Rocket 3.5 18:22:43 10° SW 18:28:09 46° NW 18:33:35 10° NNE
Cosmos 1674 2.6 18:24:27 10° N 18:28:13 72° E 18:31:56 10° SSE
STARLINK-1202 4.1 18:24:51 10° SSW 18:28:37 40° SE 18:32:24 10° ENE
STARLINK-1125 3.8 18:24:42 10° WNW 18:28:42 59° NNE 18:32:42 10° ESE
Orbus 7S? 3.1 18:26:14 10° WNW 18:29:24 53° SW 18:31:46 10° SE
SL-14 R/B 4.3 18:26:21 10° N 18:29:56 29° ENE 18:33:29 10° SE
KORONAS-FOTON 3.7 18:27:30 10° N 18:31:21 72° E 18:35:08 10° SSE
COSMO-SKYMED 1 4.5 18:28:20 10° N 18:32:20 36° WNW 18:36:19 10° SW
STARLINK-1109 3.8 18:28:59 10° WNW 18:33:01 62° NNE 18:37:01 10° ESE
STARLINK-1246 4.0 18:29:44 10° SSW 18:33:35 43° SE 18:37:27 10° ENE
Cosmos 1943 Rocket 3.5 18:32:26 10° N 18:36:50 23° NE 18:41:13 10° E
Cosmos 1980 3.8 18:31:54 10° SSW 18:37:36 88° WNW 18:43:20 10° NNE
STARLINK-1091 3.7 18:33:39 10° WNW 18:37:42 65° NNE 18:41:39 10° ESE
Cosmos 1766 3.2 18:34:02 10° S 18:38:00 68° E 18:41:58 10° NNE
S3M 4.0 18:33:31 10° S 18:39:51 73° E 18:46:15 10° NNE
Ariane Rocket 3.0 18:36:43 10° SSE 18:41:45 68° ENE 18:46:47 10° N
Cosmos 2084 4.5 18:37:36 10° WSW 18:41:59 52° NW 18:46:23 10° NNE
YAOGAN 1 4.1 18:37:57 10° SSW 18:42:00 40° W 18:46:06 10° NNW
STARLINK-1224 3.8 18:38:37 10° SW 18:42:31 50° SE 18:46:25 10° ENE
BREEZE-M DEB (TANK) 4.1 18:29:19 10° WNW 18:43:28 58° SW 18:47:01 10° SE
Cosmos 1386 Rocket 4.4 18:37:38 10° N 18:43:43 78° E 18:49:43 10° SSE
SL-08 ROCKET BODY 4.4 18:37:45 10° N 18:43:56 77° E 18:49:58 10° SSE
Cosmos 1455 Rocket 3.1 18:40:44 10° S 18:44:57 55° E 18:49:14 10° NNE
STARLINK-1225 3.7 18:43:16 10° SW 18:47:12 54° SE 18:51:09 10° ENE
Cosmos 1110 Rocket 4.0 18:42:22 10° NNW 18:47:40 85° ENE 18:52:53 10° SSE
Cosmos 332 Rocket 4.3 18:43:59 10° NNW 18:48:52 66° WSW 18:53:44 10° S
STARLINK-1203 3.5 18:45:14 10° SW 18:49:07 60° SE 18:53:01 10° ENE
STARLINK-1072 3.5 18:46:51 10° WNW 18:50:52 77° NNE 18:54:14 14° ESE
SL-16 R/B 2.5 18:45:48 10° S 18:51:07 44° ESE 18:56:28 10° NE
Cosmos 1892 Rocket 3.7 18:46:53 10° N 18:51:23 84° W 18:55:52 10° S
Cosmos 2333 Rocket 4.2 18:46:42 10° WSW 18:51:44 31° NW 18:56:47 10° NNE
STARLINK-1230 3.6 18:47:51 10° SW 18:51:49 59° SE 18:55:48 10° ENE
Cosmos 1626 Rocket 4.2 18:48:50 10° N 18:52:56 36° ENE 18:56:58 10° SE
USA 186 1.9 18:50:47 10° SSE 18:54:10 59° ENE 18:57:32 10° N
Cosmos 1953 3.9 18:53:54 14° ESE 18:55:07 16° E 18:57:33 10° NE
STARLINK-1234 3.1 18:52:10 10° WSW 18:55:08 65° NNW 18:58:07 10° ENE
ARGOS Delta rocket 4.0 18:50:07 10° SSE 18:55:12 85° ENE 19:00:35 10° N
STARLINK-1096 3.5 18:51:19 10° WNW 18:55:19 82° NNE 18:58:31 15° ESE
Cosmos 1626 2.3 18:52:17 10° N 18:55:55 50° ENE 18:59:31 10° SSE
STARLINK-1243 3.5 18:52:31 10° SW 18:56:30 63° SE 19:00:30 10° ENE
Okean 1-7 Rocket 3.7 18:54:53 10° N 18:59:18 81° W 19:03:40 10° S
STARLINK-1079 3.5 18:55:47 10° WNW 18:59:48 87° NNE 19:02:49 17° ESE
Cosmos 1602 Rocket 4.3 18:56:23 10° N 19:00:29 34° ENE 19:03:54 13° SE
STARLINK-1236 3.5 18:57:09 10° SW 19:01:09 68° SE 19:05:11 10° ENE
ATLAS 2AS CENTAUR R/B 4.3 18:57:38 10° NW 19:04:05 27° NNE 19:10:12 10° ENE
STARLINK-1116 3.5 19:00:15 10° WNW 19:04:16 89° SSW 19:07:08 19° ESE
STARLINK-1102 4.5 19:00:35 10° WNW 19:04:32 41° NNE 19:07:32 16° E
H-2A R/B 2.1 19:00:43 10° SSE 19:06:03 89° ENE 19:11:17 10° NNW
STARLINK-1111 4.4 19:05:33 10° WNW 19:09:31 42° NNE 19:12:19 18° E
Aureole 2 Rocket 4.2 19:07:21 10° NNE 19:09:46 17° NE 19:10:31 16° ENE
Cosmos 883 Rocket 4.4 19:03:54 10° S 19:10:04 76° E 19:16:20 10° NNE
STARLINK-1269 3.5 19:06:31 10° SW 19:10:33 79° SSE 19:14:25 11° ENE
Cosmos 1544 Rocket 3.5 19:07:59 10° S 19:12:22 81° E 19:16:49 10° N
ERBS 4.3 19:09:40 10° W 19:12:38 27° NNW 19:15:36 10° NE
STARLINK-1094 3.5 19:09:14 10° WNW 19:13:15 78° SSW 19:15:46 22° SE
STARLINK-1073 4.3 19:10:32 10° WNW 19:14:32 44° NNE 19:17:06 20° E
STARLINK-1200 3.5 19:11:12 10° SW 19:15:14 84° SSE 19:18:56 12° ENE
USA 234 3.3 19:08:56 10° ENE 19:15:24 61° SE 19:21:52 10° SW
Cosmos 2297 3.7 19:09:44 10° NNW 19:15:27 87° ENE 19:20:56 11° SSE
CZ-2C R/B 4.0 19:11:20 10° NNE 19:15:59 49° E 19:20:32 10° S
STARLINK-1117 3.6 19:13:45 10° WNW 19:17:46 73° SSW 19:20:07 24° SE
STARLINK-1121 4.3 19:15:32 10° WNW 19:19:32 46° NNE 19:21:53 22° E
STARLINK-1192 3.5 19:15:50 10° WSW 19:19:53 89° SE 19:23:24 14° ENE
Cosmos 2237 Rocket 3.3 19:16:02 10° SW 19:21:26 46° NW 19:26:52 10° NNE
STARLINK-1078 3.7 19:18:15 10° WNW 19:22:15 68° SW 19:24:26 25° SE
STARLINK-1106 4.2 19:20:30 10° WNW 19:24:32 48° NNE 19:26:39 24° E
STARLINK-1244 3.5 19:20:38 10° WSW 19:24:41 86° NNW 19:28:00 15° ENE
STARLINK-1201 3.6 19:21:55 10° WSW 19:25:07 54° NNW 19:27:31 16° NE
Cosmos 1302 Rocket 4.0 19:19:55 10° NNW 19:25:14 86° ENE 19:29:43 15° SSE
STARLINK-1108 3.8 19:22:47 10° WNW 19:26:47 64° SW 19:28:47 27° SE
Cosmos 2278 Rocket 4.4 19:22:46 10° NW 19:27:15 24° WSW 19:31:42 10° SSW
CZ-2C R/B 2.9 19:23:07 10° NNE 19:28:00 39° E 19:32:38 11° SSE
Cosmos 1269 Rocket 4.2 19:23:17 10° SSW 19:28:35 77° WNW 19:33:55 10° NNE
Cosmos 2184 Rocket 4.4 19:22:41 10° N 19:28:41 42° ENE 19:32:14 23° SE
Cosmos 1758 Rocket 4.4 19:25:13 10° N 19:29:10 31° ENE 19:30:09 28° E
STARLINK-1138 3.6 19:25:20 10° WSW 19:29:23 81° NNW 19:32:32 16° ENE
STARLINK-1112 4.1 19:25:29 10° WNW 19:29:33 50° NNE 19:31:27 27° E
STARLINK-1209 4.1 19:27:47 10° W 19:30:31 36° NNW 19:32:14 18° NE
STARLINK-1066 4.2 19:28:12 10° WNW 19:31:05 32° SW 19:32:18 23° S
STARLINK-1071 3.9 19:27:18 10° WNW 19:31:17 59° SW 19:33:08 29° SSE
STARLINK-1228 4.1 19:28:47 10° W 19:31:29 35° NNW 19:33:08 19° NE
STARLINK-1081 4.2 19:28:41 10° WNW 19:31:30 32° SW 19:32:41 23° S
STARLINK-1070 4.2 19:29:08 10° WNW 19:31:57 31° SW 19:33:06 23° S
STARLINK-1124 3.9 19:28:13 10° WNW 19:32:17 59° SW 19:34:14 28° SSE
STARLINK-1069 4.3 19:29:33 10° WNW 19:32:23 31° SW 19:33:34 23° S
STARLINK-1085 4.3 19:30:00 10° WNW 19:32:50 31° SW 19:34:00 23° S
STARLINK-1086 4.3 19:30:30 10° WNW 19:33:18 30° SW 19:34:25 23° S
STARLINK-1095 4.3 19:30:57 10° WNW 19:33:44 30° SW 19:34:50 23° S
STARLINK-1143 3.6 19:30:07 10° WSW 19:34:10 76° NNW 19:37:08 18° ENE
STARLINK-1077 4.3 19:31:23 10° WNW 19:34:11 30° SW 19:35:16 23° S
ARGOS 3.6 19:28:50 10° S 19:34:12 64° WSW 19:39:35 10° NNW
STARLINK-1128 4.0 19:30:29 10° WNW 19:34:33 53° NNE 19:36:15 31° E
STARLINK-1075 4.3 19:31:51 10° WNW 19:34:38 30° SW 19:35:42 23° S
STARLINK-1093 4.4 19:32:16 10° WNW 19:35:05 30° SW 19:36:11 23° S
SL-8 R/B 3.8 19:30:40 10° W 19:35:26 70° N 19:38:02 26° E
Cosmos 2251 Rocket 4.0 19:30:36 10° SSE 19:35:28 37° ESE 19:40:24 10° NE
STARLINK-1074 4.4 19:32:43 10° WNW 19:35:32 30° SW 19:36:36 23° S
STARLINK-1110 4.0 19:31:51 10° WNW 19:35:47 55° SW 19:37:29 30° SSE
STARLINK-1087 4.4 19:33:13 10° WNW 19:35:59 29° SW 19:37:00 23° S
STARLINK-1088 4.4 19:33:41 10° WNW 19:36:26 29° SW 19:37:26 23° S
STARLINK-1115 4.4 19:34:06 10° WNW 19:36:53 29° SW 19:37:55 23° S
STARLINK-1076 4.4 19:34:32 10° WNW 19:37:19 29° SW 19:38:20 23° S
STARLINK-1092 4.4 19:35:01 10° WNW 19:37:47 28° SW 19:38:47 23° S
SL-24 R/B 4.0 19:33:13 10° NNE 19:37:55 72° ESE 19:41:59 10° S
STARLINK-1080 4.4 19:35:30 10° WNW 19:38:13 28° SW 19:39:10 23° S
STARLINK-1090 4.4 19:35:56 10° WNW 19:38:40 27° SW 19:39:36 23° S
STARLINK-1089 4.4 19:36:24 10° WNW 19:39:07 27° SW 19:40:02 23° S
STARLINK-1113 4.0 19:35:28 10° WNW 19:39:33 55° NNE 19:41:02 34° E
STARLINK-1107 4.5 19:36:52 10° WNW 19:39:34 27° SW 19:40:28 23° S
Cosmos 1470 2.8 19:37:23 10° SSW 19:41:15 77° W 19:45:10 10° N
STARLINK-1119 3.9 19:40:26 10° WNW 19:44:31 58° NNE 19:45:48 39° E
STARLINK-1241 3.8 19:40:37 10° WSW 19:44:37 66° NNW 19:47:06 22° NE
STARLINK-1122 4.2 19:41:02 10° WNW 19:44:55 47° SW 19:46:17 33° SSE
STARLINK-1233 4.1 19:41:57 10° W 19:44:56 39° NNW 19:46:21 24° NE
SL-08 RB Rocket 4.1 19:40:55 10° S 19:45:22 62° W 19:49:55 10° NNW
STARLINK-1212 4.1 19:42:26 10° W 19:45:23 39° NNW 19:46:46 24° NNE
Cosmos 2315 Rocket 4.2 19:39:11 10° SSW 19:45:28 76° W 19:51:52 10° N
STARLINK-1105 4.1 19:42:52 10° W 19:45:51 39° NNW 19:47:13 24° NNE
STARLINK-1206 4.1 19:43:22 10° W 19:46:19 38° NNW 19:47:38 25° NNE
SJ-6B 3.9 19:42:38 10° S 19:46:32 45° W 19:50:31 10° NNW
STARLINK-1247 4.2 19:43:49 10° W 19:46:46 38° NNW 19:48:03 25° NNE
MetOp-A 4.1 19:42:29 15° SSE 19:46:56 86° WSW 19:52:20 10° NNW
STARLINK-1227 4.2 19:44:13 10° W 19:47:11 38° NNW 19:48:30 25° NNE
Resurs 1-3 3.5 19:44:44 25° SSE 19:47:15 88° ENE 19:51:40 10° NNW
ISS -3.1 19:44:24 10° WNW 19:47:39 46° NNE 19:48:11 41° NE
STARLINK-1218 4.2 19:44:43 10° W 19:47:40 38° NNW 19:48:55 25° NNE
STARLINK-1226 4.2 19:45:11 10° W 19:48:08 38° NNW 19:49:22 26° NNE
STARLINK-1254 4.2 19:45:35 10° W 19:48:33 38° NNW 19:49:48 26° NNE
STARLINK-1215 4.2 19:46:05 10° W 19:49:02 37° NNW 19:50:14 26° NNE
Cosmos 1758 3.6 19:45:05 10° SSW 19:49:10 70° W 19:53:16 10° N
ERS-1 Rocket 4.4 19:48:48 21° ENE 19:49:10 21° ENE 19:52:52 10° NNE
STARLINK-1239 3.9 19:45:13 10° WSW 19:49:13 63° NNW 19:51:31 24° NE
STARLINK-1231 4.2 19:46:32 10° W 19:49:28 37° NNW 19:50:39 26° NNE
STARLINK-1126 4.3 19:45:41 10° WNW 19:49:32 44° SW 19:50:44 33° S
STARLINK-1114 3.8 19:45:25 10° WNW 19:49:33 61° NNE 19:50:36 44° E
STARLINK-1232 4.2 19:47:27 10° W 19:50:23 37° NNW 19:51:31 26° NNE
STARLINK-1217 4.2 19:47:54 10° W 19:50:50 37° NNW 19:51:58 27° NNE
STARLINK-1208 4.2 19:48:19 10° W 19:51:16 37° NNW 19:52:25 26° NNE
STARLINK-1229 4.2 19:48:48 10° W 19:51:44 36° NNW 19:52:48 27° NNE
STARLINK-1271 4.3 19:49:16 10° W 19:52:12 36° NNW 19:53:17 27° NNE
BREEZE-M DEB (TANK) 3.6 19:46:01 10° WNW 19:52:23 65° N 19:53:10 47° ENE
STARLINK-1270 4.3 19:49:44 10° W 19:52:39 36° NNW 19:53:42 27° NNE
IRIDIUM 104 4.2 19:47:33 10° N 19:52:48 84° E 19:56:26 20° S
CZ-2C R/B 4.2 19:48:15 10° SSW 19:53:00 39° W 19:57:34 10° NNW
BREEZE M DEB (TANK) 4.1 19:43:12 10° SW 19:53:02 38° SSE 19:53:49 36° SE
STARLINK-1154 4.3 19:50:10 10° W 19:53:06 36° NNW 19:54:07 27° NNE
STARLINK-1240 4.0 19:49:51 10° WSW 19:53:49 60° NNW 19:55:56 26° NE
STARLINK-1197 4.3 19:51:05 10° W 19:54:00 35° NNW 19:54:59 28° NNE
STARLINK-1082 4.4 19:50:17 10° WNW 19:54:05 40° SW 19:55:08 33° S
STARLINK-1189 4.3 19:51:33 10° W 19:54:28 35° NNW 19:55:25 28° NNE
STARLINK-1130 (DARKSAT) 3.7 19:50:23 10° WNW 19:54:30 65° NNE 19:55:22 50° E
Resurs 01 Rocket 1.5 19:53:04 40° SSE 19:54:36 75° ENE 19:59:01 10° N
STARLINK-1187 4.4 19:52:26 10° W 19:55:20 33° NNW 19:56:21 26° NNE
STARLINK-1188 4.3 19:52:26 10° W 19:55:21 35° NNW 19:56:17 28° NNE
STARLINK-1198 4.3 19:52:41 10° W 19:55:36 35° NNW 19:56:31 28° NNE
Cosmos 2369 Rocket 2.3 19:50:11 10° NNW 19:55:52 61° ENE 19:57:50 39° ESE
Abrixas rocket 4.4 19:53:39 10° SW 19:54:14 14° SW 19:54:14 14° SW
STARLINK-1199 4.4 19:54:24 10° W 19:57:19 35° NNW 19:58:13 28° NNE
STARLINK-1191 4.4 19:54:52 10° W 19:57:47 34° NNW 19:58:39 29° NNE
STARLINK-1210 4.4 19:55:18 10° W 19:58:13 34° NNW 19:59:05 29° NNE
STARLINK-1216 4.1 19:54:30 10° WSW 19:58:28 57° NNW 20:00:23 28° NE
STARLINK-1221 4.4 19:55:46 10° W 19:58:42 34° NNW 19:59:33 29° NNE
STARLINK-1219 4.4 19:56:14 10° W 19:59:09 34° NNW 19:59:58 29° NNE
STARLINK-1084 3.6 19:55:21 10° WNW 19:59:30 69° NNE 20:00:09 57° E
STARLINK-1222 4.4 19:56:40 10° W 19:59:35 34° NNW 20:00:23 29° NNE
STARLINK-1211 4.4 19:57:08 10° W 20:00:03 34° NNW 20:00:49 29° NNE
STARLINK-1214 4.4 19:57:35 10° W 20:00:30 34° NNW 20:01:15 29° NNE
STARLINK-1245 4.4 19:58:06 10° W 20:00:59 33° NNW 20:01:40 29° NNE
STARLINK-1238 4.4 19:58:31 10° W 20:01:25 33° NNW 20:02:07 29° NNE
IRIDIUM 114 4.3 19:56:43 10° N 20:01:58 81° W 20:05:35 20° S
STARLINK-1205 4.4 19:59:28 10° W 20:02:21 33° NNW 20:02:59 30° N
STARLINK-1204 4.4 19:59:54 10° W 20:02:46 33° NNW 20:03:23 30° N
STARLINK-1237 4.2 19:59:11 10° W 20:03:09 54° NNW 20:04:52 30° NE
STARLINK-1098 3.5 20:00:19 10° WNW 20:04:28 73° NNE 20:04:55 65° ENE
SPOT 3 Rocket 4.2 20:00:43 13° S 20:05:12 54° W 20:10:20 10° NNW
Cosmos 1726 2.6 20:06:30 49° NE 20:06:30 49° NE 20:09:25 10° NNE
Landsat 7 4.4 20:06:34 38° ENE 20:06:36 38° ENE 20:10:59 10° N
STARLINK-1202 4.3 20:03:50 10° W 20:07:46 51° NNW 20:09:18 32° NE
Meteor 1-21 Rocket 4.2 20:02:51 10° NNW 20:08:26 77° W 20:11:31 27° S
Nadezhda 1 Rocket 4.1 20:06:17 37° SE 20:08:32 53° E 20:14:43 10° NNE
STARLINK-1123 3.5 20:05:19 10° WNW 20:09:29 78° NNE 20:09:44 74° ENE
Cosmos 2228 3.8 20:11:03 38° NE 20:11:03 38° NE 20:14:04 10° NNE
STARLINK-1246 4.4 20:08:58 10° W 20:12:56 49° NNW 20:14:18 34° NNE
MOS 1 Rocket 3.6 20:07:49 10° N 20:13:02 82° WNW 20:18:26 10° SSW
STARLINK-1097 3.5 20:10:17 10° WNW 20:14:26 83° NNE 20:14:29 82° NE
Cosmos 292 Rocket 3.8 20:13:21 10° NNW 20:18:08 77° WSW 20:19:07 56° S
Cosmos 1943 3.5 20:19:28 45° E 20:19:28 45° E 20:24:00 10° NE
STARLINK-1099 3.6 20:15:16 10° WNW 20:19:17 83° NW 20:19:17 83° NW
Cosmos 1943 Rocket 2.3 20:15:35 10° NNW 20:21:05 69° WSW 20:22:51 43° S
STARLINK-1224 4.5 20:17:55 10° W 20:21:48 45° NNW 20:22:45 38° NNE
Cosmos 2074 Rocket 4.1 20:17:16 10° N 20:23:33 77° W 20:26:45 31° S
NOSS 3-4 (A) 4.4 20:17:06 10° NNW 20:23:36 43° NE 20:25:57 34° E
NOSS 3-4 (C) 4.4 20:17:12 10° NNW 20:23:41 43° NE 20:26:03 34° E
STARLINK-1104 3.7 20:20:16 10° WNW 20:24:04 74° WNW 20:24:04 74° WNW
Cosmos 1328 4.4 20:23:39 10° N 20:26:45 50° N 20:26:45 50° N
STARLINK-1144 3.9 20:25:13 10° WNW 20:28:50 65° WNW 20:28:50 65° WNW
Cosmos 1953 3.4 20:29:29 27° SW 20:31:08 43° WNW 20:34:57 10° N
Meteor 2-10 4.2 20:28:34 25° SSW 20:31:47 74° WNW 20:37:20 10° N
SPOT 1/Viking Rocket 3.6 20:32:06 59° ENE 20:32:06 59° ENE 20:37:10 10° N
NOSS 3-3 (A) 3.7 20:27:02 10° SSW 20:32:50 72° SE 20:39:24 10° NE
NOSS 3-3 (C) 3.7 20:27:08 10° SSW 20:32:57 71° SE 20:39:30 10° NE
Spot 2 Rocket 3.4 20:33:06 73° SSE 20:33:38 90° W 20:38:47 10° NNW
STARLINK-1103 4.1 20:30:12 10° WNW 20:33:37 57° W 20:33:37 57° W
SL-16 R/B 3.8 20:30:14 10° WSW 20:35:21 34° NW 20:40:31 10° NNE
Cosmos 2084 Rocket 3.9 20:31:06 10° NW 20:35:19 60° WSW 20:35:19 60° WSW
Cosmos 1610 Rocket 4.4 20:31:21 10° N 20:37:37 90° ENE 20:39:03 56° S
STARLINK-1101 4.3 20:35:12 10° WNW 20:38:25 50° W 20:38:25 50° W
IGS 5A 4.3 20:42:15 45° N 20:42:15 45° N 20:45:13 10° N
Aureole 2 Rocket 4.3 20:40:27 10° NW 20:42:44 30° WNW 20:42:44 30° WNW
Terra 3.1 20:49:36 31° NNE 20:49:36 31° NNE 20:52:37 10° N
Cosmos 2341 Rocket 4.0 20:47:27 10° N 20:53:48 67° E 20:53:51 67° E
Cosmos 1726 Rocket 4.5 20:55:09 46° NNW 20:55:09 46° NNW 20:58:24 10° N
ATLAS 2AS CENTAUR R/B 2.9 20:49:00 10° NW 20:56:38 64° NE 20:57:41 58° E
Cosmos 1603 3.8 20:53:25 26° SW 20:56:42 70° WNW 21:02:20 10° NNE
USA 234 3.8 20:52:02 10° NE 20:58:24 55° NNW 21:04:44 10° W
Aureole 1 Rocket 4.2 21:07:14 72° SE 21:07:45 75° ESE 21:14:28 10° NNE
CZ-2C R/B 4.3 21:03:41 10° N 21:08:10 30° WNW 21:12:37 10° SW
COSMOS 2455 3.6 21:05:48 10° NNW 21:11:09 42° NE 21:11:09 42° NE
Cosmos 2218 Rocket 4.3 21:16:21 10° N 21:21:26 57° NNE 21:21:26 57° NNE
Cosmos 1656 Rocket 4.2 21:17:46 10° NNW 21:22:37 56° WNW 21:22:37 56° WNW
ERS-1 Rocket 3.9 21:28:47 45° NW 21:28:47 45° NW 21:32:31 10° NNW
Resurs 01 Rocket 4.3 21:30:38 11° WSW 21:31:38 12° W 21:33:24 10° WNW
Cosmos 2181 Rocket 4.3 21:33:10 59° NNE 21:33:10 59° NNE 21:38:08 10° N
SPOT 5 4.4 21:35:19 29° NNW 21:35:19 29° NNW 21:37:35 10° NNW
Cosmos 2369 Rocket 4.0 21:35:05 10° NW 21:39:25 23° W 21:39:39 23° WSW
CZ-4C R/B 4.5 21:58:15 10° NNW 22:03:36 25° NNE 22:06:33 19° NE
Mayak 1.8 22:06:40 10° N 22:06:55 12° N 22:06:55 12° N
NOSS 3-4 (A) 4.4 22:07:57 10° NW 22:13:24 50° W 22:13:24 50° W
NOSS 3-4 (C) 4.4 22:08:02 10° NW 22:13:29 50° W 22:13:29 50° W
Terra 4.3 22:28:30 18° NW 22:28:30 18° NW 22:30:05 10° NW
Cosmos 1697 Rocket 4.5 22:22:56 10° NNW 22:26:03 26° NNE 22:26:03 26° NNE
ATLAS 2AS CENTAUR R/B 4.2 22:40:37 10° NW 22:45:08 29° W 22:45:08 29° W
Cosmos 1980 Rocket 4.1 22:48:04 10° N 22:50:55 23° NNE 22:50:55 23° NNE
